Watsonville, CA

2:49 AM PST on November 12, 2019 (GMT -0800)
Watsonville Municipal

Weather History for KWVI - September, 2019

Change the Weather History Date:

Sunday, September 1, 2019

  Actual Average Record
Temperature  
Mean Temperature 72 °F 64 °F  
Max Temperature 88 °F 76 °F 107 °F (2017)
Min Temperature 55 °F 53 °F 46 °F (2008)
Degree Days  
Heating Degree Days 0    
Month to date heating degree days 0  
Since 1 July heating degree days 58  
Cooling Degree Days 7    
Month to date cooling degree days 7  
Year to date cooling degree days 122  
Growing Degree Days 22 (Base 50)    
Moisture  
Dew Point 56 °F    
Average Humidity 59    
Maximum Humidity 86    
Minimum Humidity 31    
Precipitation  
Precipitation 0.00 in - 0.11 in (1964)
Month to date precipitation 0.00  
Year to date precipitation 22.78  
Sea Level Pressure  
Sea Level Pressure 29.91 in    
Wind  
Wind Speed 3 mph (South)    
Max Wind Speed 12 mph    
Max Gust Speed 13 mph    
Visibility 10 miles    
Events      
T = Trace of Precipitation, MM = Missing Value Source: NWS Daily Summary

Daily Weather History Graph

Daily Weather History Graph

Search for Another Location

Airport or City:

Astronomy

Sep. 01, 2019 Rise Set
Actual Time 6:37 AM PDT 7:35 PM PDT
Civil Twilight 6:11 AM PDT 8:02 PM PDT
Nautical Twilight 5:39 AM PDT 8:33 PM PDT
Astronomical Twilight 5:07 AM PDT 9:06 PM PDT
Moon 9:11 AM PDT (9/1) 9:30 PM PDT (9/1)
Length of Visible Light 13h 50m
Length of Day
12h 57m
Waxing Crescent, 8% of the Moon is Illuminated
Sep 1
Waxing Crescent
Sep 5
First Quarter
Sep 13
Full
Sep 21
Last Quarter
Sep 28
New

Hourly Weather History & Observations

Time (PDT) Temp. Heat Index Dew Point Humidity Pressure Visibility Wind Dir Wind Speed Gust Speed Precip Events Conditions
12:53 AM 60.1 °F - 55.9 °F 86% 29.91 in 10.0 mi Calm Calm - N/A   Clear
1:53 AM 57.9 °F - 54.0 °F 87% 29.91 in 10.0 mi Calm Calm - N/A   Clear
2:53 AM 59.0 °F - 54.0 °F 83% 29.91 in 10.0 mi Calm Calm - N/A   Clear
3:53 AM 57.9 °F - 54.0 °F 87% 29.90 in 10.0 mi Calm Calm - N/A   Clear
4:53 AM 57.0 °F - 53.1 °F 87% 29.91 in 10.0 mi Calm Calm - N/A   Clear
5:53 AM 57.0 °F - 52.0 °F 83% 29.92 in 10.0 mi Calm Calm - N/A   Clear
6:53 AM 57.0 °F - 52.0 °F 83% 29.93 in 10.0 mi North 4.6 mph - N/A   Clear
7:53 AM 62.1 °F - 55.0 °F 78% 29.94 in 10.0 mi Calm Calm - N/A   Clear
8:53 AM 68.0 °F - 57.0 °F 68% 29.95 in 10.0 mi Calm Calm - N/A   Clear
9:53 AM 75.0 °F - 55.0 °F 50% 29.95 in 10.0 mi SSE 3.5 mph - N/A   Clear
10:53 AM 79.0 °F - 57.0 °F 47% 29.94 in 10.0 mi Calm Calm - N/A   Clear
11:53 AM 84.9 °F 84.2 °F 57.9 °F 40% 29.94 in 10.0 mi Variable 4.6 mph - N/A   Clear
12:53 PM 87.1 °F 84.9 °F 53.1 °F 31% 29.92 in 10.0 mi South 6.9 mph - N/A   Clear
1:53 PM 87.1 °F 85.7 °F 55.9 °F 35% 29.91 in 10.0 mi South 9.2 mph - N/A   Clear
2:53 PM 81.0 °F 81.3 °F 59.0 °F 47% 29.90 in 10.0 mi South 9.2 mph - N/A   Clear
3:53 PM 78.1 °F - 59.0 °F 52% 29.88 in 10.0 mi South 8.1 mph - N/A   Clear
4:53 PM 75.0 °F - 60.1 °F 60% 29.87 in 10.0 mi SSW 8.1 mph - N/A   Clear
5:53 PM 73.0 °F - 59.0 °F 61% 29.87 in 10.0 mi South 8.1 mph - N/A   Clear
6:53 PM 72.0 °F - 57.9 °F 61% 29.87 in 10.0 mi South 6.9 mph - N/A   Clear
7:53 PM 68.0 °F - 57.0 °F 68% 29.89 in 10.0 mi South 4.6 mph - N/A   Clear
8:53 PM 63.0 °F - 57.0 °F 81% 29.90 in 10.0 mi WSW 3.5 mph - N/A   Clear
9:53 PM 64.0 °F - 57.0 °F 78% 29.92 in 10.0 mi Calm Calm - N/A   Clear
10:53 PM 64.9 °F - 57.0 °F 75% 29.92 in 10.0 mi Calm Calm - N/A   Clear
11:53 PM 61.0 °F - 55.9 °F 83% 29.93 in 10.0 mi Calm Calm - N/A   Clear